Home > Time Zones > World Clock > Weather > U.S.A. > Bend > Past weeks

Flag for U.S.A. Weather past 2 weeks in Bend, Oregon, U.S.A.

Now
62 °F

Scattered clouds.


Feels Like: 62 °F
Forecast: 44 / 72 °F
Wind: 10 mph from North

Location: Roberts Field Airport

Current Time: May 26, 2015 at 9:45:33 PM

Latest Report: May 26, 2015 at 8:56 PM


Visibility: 10 mi

Pressure: 29.92 "Hg

Humidity: 50%

Dew point: 43 °F

Location of BendLocation

Historic Weather in Bend — Graph

°F

Bend temperature yesterday

Maximum temperature yesterday: 72 °F (at 4:56 PM)
Minimum temperature yesterday: 40 °F (at 4:56 AM)
Average temperature yesterday: 57 °F

Past Weeks' High & Low Weather Summary

 TemperatureHumidityPressure
High72 °F (May 24, 1:56 PM)100% (May 17, 11:56 PM)30.08 "Hg (May 17, 11:56 PM)
Low31 °F (May 13, 3:56 AM)25% (May 25, 1:56 PM)29.72 "Hg (May 14, 6:56 PM)
Average53 °F72%29.92 "Hg
* Reported May 11 7:56 PM — May 26 7:56 PM, Bend, Weather by CustomWeather, © 2015

Note: Actual official high and low records may vary slightly from our data, if they occured in-between our weather recording intervals... More about our weather records

Advertising

Bend weather history for previous 24 hours

 ConditionsComfort  
Time TempWeatherWind HumidityBarometerVisibility
7:56 PM
Tue, May 26
65 °FPassing clouds.14 mph47%29.90 "Hg10 mi
6:56 PM70 °FSunny.12 mph32%29.89 "Hg10 mi
5:56 PM72 °FSunny.14 mph30%29.89 "Hg10 mi
4:56 PM72 °FSunny.9 mph29%29.89 "Hg10 mi
3:56 PM71 °FSunny.No wind28%29.90 "Hg10 mi
2:56 PM71 °FSunny.8 mph28%29.91 "Hg10 mi
1:56 PM70 °FSunny.7 mph26%29.93 "Hg10 mi
12:56 PM68 °FSunny.7 mph27%29.93 "Hg10 mi
11:56 AM66 °FSunny.6 mph32%29.94 "Hg10 mi
10:56 AM62 °FSunny.3 mph34%29.95 "Hg10 mi
9:56 AM60 °FSunny.5 mph39%29.96 "Hg10 mi
8:56 AM56 °FSunny.3 mph51%29.97 "Hg10 mi
7:56 AM52 °FSunny.3 mph66%29.98 "Hg10 mi
6:56 AM46 °FSunny.No wind77%29.97 "Hg10 mi
5:56 AM40 °FClear.3 mph89%29.97 "Hg10 mi
4:56 AM42 °FClear.6 mph85%29.96 "Hg10 mi
3:56 AM43 °FClear.5 mph86%29.95 "Hg10 mi
2:56 AM43 °FClear.6 mph86%29.95 "Hg10 mi
1:56 AM45 °FClear.5 mph80%29.95 "Hg10 mi
12:56 AM51 °FClear.6 mph69%29.93 "Hg10 mi
11:56 PM
Mon, May 25
54 °FClear.9 mph62%29.94 "Hg10 mi
10:56 PM55 °FClear.7 mph57%29.94 "Hg10 mi
9:56 PM58 °FClear.9 mph50%29.94 "Hg10 mi
Weather by CustomWeather, © 2015

See weather overviewHow to use our weather pages